�N����,����,�g�[���i���ԁj���x,�g�[�����x,��g�[���i���ցj���x,����
 2003/05/01, 0:00,25.2,48,23.1,17.2
 2003/05/01, 0:15,25.2,48,23.1,18.3
 2003/05/01, 0:30,25.2,48,23,18.4
 2003/05/01, 0:45,25.2,48,23.1,18.5
 2003/05/01, 1:00,25.2,48,23,18.5
 2003/05/01, 1:15,25.2,48,23,18.6
 2003/05/01, 1:30,25.1,48,22.9,18.7
 2003/05/01, 1:45,25.1,48,23,18.8
 2003/05/01, 2:00,25,48,22.8,18.8
 2003/05/01, 2:15,24.8,48,22.9,18.9
 2003/05/01, 2:30,24.7,49,22.8,19
 2003/05/01, 2:45,24.6,49,22.8,19.1
 2003/05/01, 3:00,24.5,49,22.8,19.1
 2003/05/01, 3:15,24.4,49,22.7,19.2
 2003/05/01, 3:30,24.4,49,22.6,19.3
 2003/05/01, 3:45,24.3,49,22.7,19.3
 2003/05/01, 4:00,24.3,49,22.6,19.4
 2003/05/01, 4:15,24.2,49,22.5,19.5
 2003/05/01, 4:30,24.2,49,22.5,19.5
 2003/05/01, 4:45,24.1,49,22.5,19.6
 2003/05/01, 5:00,24.1,49,22.4,19.6
 2003/05/01, 5:15,24,49,22.4,18.9
 2003/05/01, 5:30,23.9,48,22.2,18.3
 2003/05/01, 5:45,23.9,48,22.2,17
 2003/05/01, 6:00,24,47,22.4,17.1
 2003/05/01, 6:15,24.1,46,22.1,17.2
 2003/05/01, 6:30,24,46,22,17.3
 2003/05/01, 6:45,24.1,46,22,17.4
 2003/05/01, 7:00,24.3,46,22,17.5
 2003/05/01, 7:15,24.4,46,22.1,18
 2003/05/01, 7:30,24.4,46,22.1,17.6
 2003/05/01, 7:45,24.2,44,22,17.7
 2003/05/01, 8:00,24,44,21.9,17.8
 2003/05/01, 8:15,23.9,42,21.9,17.9
 2003/05/01, 8:30,24,42,21.9,16.5
 2003/05/01, 8:45,24,42,21.9,16.6
 2003/05/01, 9:00,24,42,21.9,15.1
 2003/05/01, 9:15,23.9,43,21.8,15.2
 2003/05/01, 9:30,23.9,42,21.8,15.4
 2003/05/01, 9:45,24,44,21.8,15.1
 2003/05/01,10:00,23.9,44,21.7,15.2
 2003/05/01,10:15,24,42,21.8,15.3
 2003/05/01,10:30,24.1,43,21.8,15.5
 2003/05/01,10:45,24.2,43,22.1,16.2
 2003/05/01,11:00,24.2,43,22.3,16.3
 2003/05/01,11:15,24.1,43,22,16.4
 2003/05/01,11:30,23.9,45,22,16.5
 2003/05/01,11:45,23.9,46,22,16.6
 2003/05/01,12:00,23.8,45,22,16.7
 2003/05/01,12:15,23.8,45,22,16.8
 2003/05/01,12:30,23.7,45,22,16.9
 2003/05/01,12:45,23.7,45,22,17
 2003/05/01,13:00,23.8,43,22,17.9
 2003/05/01,13:15,23.8,43,22,18
 2003/05/01,13:30,23.9,42,22,18
 2003/05/01,13:45,23.9,42,22.1,18.1
 2003/05/01,14:00,23.9,42,22.1,18.2
 2003/05/01,14:15,24,41,22.2,17.5
 2003/05/01,14:30,24,41,22.1,17.6
 2003/05/01,14:45,24.1,41,22.1,17.7
 2003/05/01,15:00,24.1,41,22.2,17.8
 2003/05/01,15:15,24.2,40,22.3,17.9
 2003/05/01,15:30,24.2,40,22.3,17.9
 2003/05/01,15:45,24.2,40,22.3,18
 2003/05/01,16:00,24.2,40,22.5,18.1
 2003/05/01,16:15,24.3,40,22.4,18.2
 2003/05/01,16:30,24.3,40,22.4,18.3
 2003/05/01,16:45,24.3,40,22.5,18.3
 2003/05/01,17:00,24.3,40,22.6,18.4
 2003/05/01,17:15,24.3,40,22.6,18.5
 2003/05/01,17:30,24.4,41,22.7,18.8
 2003/05/01,17:45,24.4,42,22.7,18.9
 2003/05/01,18:00,24.3,39,22.6,18.5
 2003/05/01,18:15,24.2,35,22.6,18.6
 2003/05/01,18:30,24.1,36,22.5,18.7
 2003/05/01,18:45,24.2,40,22.6,18.7
 2003/05/01,19:00,24.3,40,22.6,18.7
 2003/05/01,19:15,24.4,40,22.6,18.8
 2003/05/01,19:30,24.5,40,22.7,17.4
 2003/05/01,19:45,24.5,40,22.6,15.3
 2003/05/01,20:00,24.5,40,22.7,15.5
 2003/05/01,20:15,24.5,41,22.6,16.2
 2003/05/01,20:30,24.5,41,22.5,16.3
 2003/05/01,20:45,24.4,42,22.5,15.6
 2003/05/01,21:00,24.6,46,22.6,16
 2003/05/01,21:15,24.6,43,22.7,15.5
 2003/05/01,21:30,24.7,43,22.7,15.6
 2003/05/01,21:45,24.6,44,22.7,15.7
 2003/05/01,22:00,24.6,45,22.7,15.8
 2003/05/01,22:15,24.6,45,22.7,15.9
 2003/05/01,22:30,24.6,45,22.7,16
 2003/05/01,22:45,24.6,46,22.7,16.2
 2003/05/01,23:00,24.7,46,22.8,16.3
 2003/05/01,23:15,24.7,46,22.8,16.4
 2003/05/01,23:30,24.8,46,22.8,16.6
 2003/05/01,23:45,24.8,46,22.9,16.7
 2003/05/02, 0:00,24.8,46,22.9,16.8
 2003/05/02, 0:15,24.8,46,22.9,17
 2003/05/02, 0:30,24.8,46,22.8,17.1
 2003/05/02, 0:45,24.8,46,22.9,17.2
 2003/05/02, 1:00,24.9,48,23,17.3
 2003/05/02, 1:15,24.7,47,22.9,16.5
 2003/05/02, 1:30,24.6,46,22.8,16.6
 2003/05/02, 1:45,24.4,47,22.8,16.7
 2003/05/02, 2:00,24.3,47,22.8,16.8
 2003/05/02, 2:15,24.2,47,22.8,17
 2003/05/02, 2:30,24.1,48,22.8,17.1
 2003/05/02, 2:45,24,48,22.7,17.2
 2003/05/02, 3:00,24,48,22.7,17.3
 2003/05/02, 3:15,23.9,48,22.7,17.4
 2003/05/02, 3:30,23.9,48,22.6,17.5
 2003/05/02, 3:45,23.8,48,22.6,17.6
 2003/05/02, 4:00,23.8,48,22.6,17.7
 2003/05/02, 4:15,23.8,48,22.5,17.8
 2003/05/02, 4:30,23.7,49,22.5,17.9
 2003/05/02, 4:45,23.7,49,22.5,18
 2003/05/02, 5:00,23.6,49,22.5,18.1
 2003/05/02, 5:15,23.6,49,22.5,18.2
 2003/05/02, 5:30,23.6,49,22.4,18.3
 2003/05/02, 5:45,23.6,49,22.4,18.4
 2003/05/02, 6:00,23.6,49,22.4,17.2
 2003/05/02, 6:15,23.4,48,22.2,16.6
 2003/05/02, 6:30,23.5,47,22.2,16.7
 2003/05/02, 6:45,23.5,47,22.2,16.8
 2003/05/02, 7:00,23.5,47,22.2,16.9
 2003/05/02, 7:15,23.5,48,22.1,17
 2003/05/02, 7:30,23.8,48,22.1,17.1
 2003/05/02, 7:45,23.8,48,22.3,17.4
 2003/05/02, 8:00,23.9,47,22.2,15.2
 2003/05/02, 8:15,24,47,22.3,15.4
 2003/05/02, 8:30,24.9,48,22.5,15.5
 2003/05/02, 8:45,25.2,47,22.8,14.9
 2003/05/02, 9:00,24.9,48,22.8,15
 2003/05/02, 9:15,24.8,48,22.8,15.2
 2003/05/02, 9:30,24.8,48,22.8,15.3
 2003/05/02, 9:45,24.7,48,22.7,16.7
 2003/05/02,10:00,24.6,49,22.7,16.8
 2003/05/02,10:15,24.6,49,22.8,16.9
 2003/05/02,10:30,24.5,49,22.8,17
 2003/05/02,10:45,24.4,49,22.8,17.1
 2003/05/02,11:00,24.3,49,22.7,17.2
 2003/05/02,11:15,24.3,48,22.7,17.3
 2003/05/02,11:30,24.2,48,22.7,17.4
 2003/05/02,11:45,24.2,48,22.7,17.5
 2003/05/02,12:00,24.2,48,22.7,17.6
 2003/05/02,12:15,24.2,48,22.7,17.7
 2003/05/02,12:30,24.2,48,22.7,18.3
 2003/05/02,12:45,24.3,48,22.7,18.5
 2003/05/02,13:00,24.3,48,22.7,18.6
 2003/05/02,13:15,24.2,47,22.8,18.6
 2003/05/02,13:30,24.2,47,22.7,18.7
 2003/05/02,13:45,24.2,47,22.7,18.8
 2003/05/02,14:00,24.3,46,22.9,18.8
 2003/05/02,14:15,24.4,46,22.9,18.9
 2003/05/02,14:30,24.4,47,23,19
 2003/05/02,14:45,24.4,47,23,19.1
 2003/05/02,15:00,24.6,49,23.1,19.1
 2003/05/02,15:15,24.7,48,23.2,19.2
 2003/05/02,15:30,24.7,47,23.3,15.3
 2003/05/02,15:45,24.7,47,23.3,15.5
 2003/05/02,16:00,24.6,48,23.2,15.6
 2003/05/02,16:15,24.6,47,23.2,15.8
 2003/05/02,16:30,24.6,47,23.2,15.9
 2003/05/02,16:45,24.5,48,23.2,16.1
 2003/05/02,17:00,24.5,48,23.2,16.2
 2003/05/02,17:15,24.4,48,23.2,16.3
 2003/05/02,17:30,24.4,48,23.2,16.5
 2003/05/02,17:45,24.3,48,23.1,16.6
 2003/05/02,18:00,24.2,48,23.2,16.7
 2003/05/02,18:15,24.2,48,23.1,16.9
 2003/05/02,18:30,24.3,49,23.1,17.8
 2003/05/02,18:45,24.4,50,23.3,17.9
 2003/05/02,19:00,24.5,50,23.4,18
 2003/05/02,19:15,24.6,50,23.3,18.1
 2003/05/02,19:30,24.7,50,23.3,18.1
 2003/05/02,19:45,24.7,50,23.3,18.2
 2003/05/02,20:00,24.8,51,23.3,18.3
 2003/05/02,20:15,25.2,51,23.3,18.4
 2003/05/02,20:30,25.5,50,23.5,18.5
 2003/05/02,20:45,25.6,51,23.6,18.6
 2003/05/02,21:00,25.5,51,23.5,18.7
 2003/05/02,21:15,25.5,50,23.5,18.7
 2003/05/02,21:30,25.4,50,23.5,18.8
 2003/05/02,21:45,25.4,50,23.5,18.9
 2003/05/02,22:00,25.4,50,23.5,17.7
 2003/05/02,22:15,25.4,51,23.5,17.8
 2003/05/02,22:30,25.4,51,23.5,17.8
 2003/05/02,22:45,25.4,51,23.4,16.3
 2003/05/02,23:00,25.4,51,23.4,16.4
 2003/05/02,23:15,25.4,51,23.5,16.6
 2003/05/02,23:30,25.4,51,23.5,16.7
 2003/05/02,23:45,25.4,51,23.5,16.8
 2003/05/03, 0:00,25.4,51,23.5,17
 2003/05/03, 0:15,25.4,51,23.5,17.1
 2003/05/03, 0:30,25.4,51,23.5,17.2
 2003/05/03, 0:45,25.4,51,23.5,17.3
 2003/05/03, 1:00,25.4,51,23.5,17.5
 2003/05/03, 1:15,25.4,51,23.5,17.6
 2003/05/03, 1:30,25.4,51,23.5,19.3
 2003/05/03, 1:45,25.4,51,23.5,19.2
 2003/05/03, 2:00,25.4,51,23.5,19.2
 2003/05/03, 2:15,25.4,51,23.5,19.3
 2003/05/03, 2:30,25.4,51,23.5,19.3
 2003/05/03, 2:45,25.3,51,23.5,19.4
 2003/05/03, 3:00,25.2,51,23.5,19.5
 2003/05/03, 3:15,25.1,51,23.5,19.5
 2003/05/03, 3:30,25,52,23.4,19.6
 2003/05/03, 3:45,24.9,52,23.3,19.7
 2003/05/03, 4:00,24.8,52,23.4,19.7
 2003/05/03, 4:15,24.8,52,23.4,19.8
 2003/05/03, 4:30,24.7,53,23.4,19.9
 2003/05/03, 4:45,24.7,53,23.4,19.9
 2003/05/03, 5:00,24.7,53,23.3,20
 2003/05/03, 5:15,24.6,53,23.3,20.1
 2003/05/03, 5:30,24.6,53,23.3,20.1
 2003/05/03, 5:45,24.6,53,23.3,20.2
 2003/05/03, 6:00,24.5,53,23.3,20.3
 2003/05/03, 6:15,24.5,53,23.3,20.3
 2003/05/03, 6:30,24.4,53,23.2,20.4
 2003/05/03, 6:45,24.4,53,23.2,20.5
 2003/05/03, 7:00,24.4,53,23.2,20.5
 2003/05/03, 7:15,24.3,53,23.2,20.6
 2003/05/03, 7:30,24.3,53,23.1,20.7
 2003/05/03, 7:45,24.3,53,23.1,20.7
 2003/05/03, 8:00,24.3,54,23.1,20.8
 2003/05/03, 8:15,24.3,54,23.1,21
 2003/05/03, 8:30,24.3,54,23.1,21
 2003/05/03, 8:45,24.4,53,23.1,18.3
 2003/05/03, 9:00,24.4,53,23,18.4
 2003/05/03, 9:15,24.5,53,23,18.5
 2003/05/03, 9:30,24.6,54,22.9,18.6
 2003/05/03, 9:45,24.7,53,23.1,18.6
 2003/05/03,10:00,24.8,53,23.1,18.7
 2003/05/03,10:15,25,55,23.2,18.8
 2003/05/03,10:30,25.2,54,23.3,18.9
 2003/05/03,10:45,25.2,53,23.4,19
 2003/05/03,11:00,25.3,53,23.8,19
 2003/05/03,11:15,25.4,53,23.9,19.1
 2003/05/03,11:30,25.4,50,24,16.1
 2003/05/03,11:45,25.5,50,24.1,16.6
 2003/05/03,12:00,25.5,49,23.9,15.1
 2003/05/03,12:15,25.5,49,23.9,15.3
 2003/05/03,12:30,25.4,49,23.9,15.5
 2003/05/03,12:45,25.3,49,23.8,15.6
 2003/05/03,13:00,25.2,50,23.8,15.8
 2003/05/03,13:15,25.2,50,23.7,16
 2003/05/03,13:30,25.1,49,23.6,16.1
 2003/05/03,13:45,25.1,48,23.7,16.3
 2003/05/03,14:00,25.1,48,23.7,16.4
 2003/05/03,14:15,25,48,23.7,16.6
 2003/05/03,14:30,25,48,23.7,16.7
 2003/05/03,14:45,25.1,48,23.7,16.9
 2003/05/03,15:00,25,49,23.6,17
 2003/05/03,15:15,25,49,23.7,17.1
 2003/05/03,15:30,25,49,23.7,17.2
 2003/05/03,15:45,25,49,23.7,17.4
 2003/05/03,16:00,25,49,23.7,17.5
 2003/05/03,16:15,25,49,23.7,17.6
 2003/05/03,16:30,25,49,23.7,17.7
 2003/05/03,16:45,25,49,23.6,17.8
 2003/05/03,17:00,25,48,23.6,17.9
 2003/05/03,17:15,24.9,48,23.6,18.1
 2003/05/03,17:30,24.9,48,23.7,18.1
 2003/05/03,17:45,24.8,47,23.7,19.4
 2003/05/03,18:00,24.8,45,23.7,19.7
 2003/05/03,18:15,24.9,45,23.6,17.1
 2003/05/03,18:30,25,44,23.7,17.3
 2003/05/03,18:45,25,44,23.8,17.1
 2003/05/03,19:00,25.1,45,23.8,16.2
 2003/05/03,19:15,25.2,45,23.8,16.3
 2003/05/03,19:30,25.2,45,23.8,16.4
 2003/05/03,19:45,25.2,44,23.9,16.6
 2003/05/03,20:00,25.3,44,24,16.7
 2003/05/03,20:15,25.3,45,24,16.8
 2003/05/03,20:30,25.5,47,24,17
 2003/05/03,20:45,25.5,45,24,17.1
 2003/05/03,21:00,25.5,45,23.9,17.1
 2003/05/03,21:15,25.4,45,23.9,17.2
 2003/05/03,21:30,25.4,45,23.9,17.4
 2003/05/03,21:45,25.4,45,24,17.8
 2003/05/03,22:00,25.4,44,23.9,16.8
 2003/05/03,22:15,25.4,44,23.9,16.8
 2003/05/03,22:30,25.4,45,23.9,17
 2003/05/03,22:45,25.4,45,23.9,17.1
 2003/05/03,23:00,25.4,47,23.8,18.1
 2003/05/03,23:15,25.4,47,23.9,18
 2003/05/03,23:30,25.4,47,23.9,18.1
 2003/05/03,23:45,25.3,46,23.8,18.2
 2003/05/04, 0:00,25.3,47,23.8,18.3
 2003/05/04, 0:15,25.3,47,23.8,19
 2003/05/04, 0:30,25.2,47,23.8,18.6
 2003/05/04, 0:45,25.1,48,23.8,18.7
 2003/05/04, 1:00,25.1,48,23.7,18.8
 2003/05/04, 1:15,25,48,23.8,18.9
 2003/05/04, 1:30,25,49,23.8,18.9
 2003/05/04, 1:45,24.9,49,23.6,19
 2003/05/04, 2:00,24.9,49,23.7,19.1
 2003/05/04, 2:15,24.8,49,23.7,19.9
 2003/05/04, 2:30,24.8,49,23.7,20
 2003/05/04, 2:45,24.7,49,23.7,20.1
 2003/05/04, 3:00,24.6,49,23.5,20.1
 2003/05/04, 3:15,24.6,49,23.6,20.2
 2003/05/04, 3:30,24.6,50,23.6,20.3
 2003/05/04, 3:45,24.5,50,23.6,20.3
 2003/05/04, 4:00,24.5,50,23.5,20.4
 2003/05/04, 4:15,24.5,50,23.5,20.5
 2003/05/04, 4:30,24.5,51,23.5,20.5
 2003/05/04, 4:45,24.4,51,23.5,20.6
 2003/05/04, 5:00,24.4,51,23.4,20.6
 2003/05/04, 5:15,24.4,51,23.4,20.7
 2003/05/04, 5:30,24.4,51,23.4,20.8
 2003/05/04, 5:45,24.4,51,23.4,20.8
 2003/05/04, 6:00,24.4,51,23.4,20.9
 2003/05/04, 6:15,24.4,51,23.4,21.6
 2003/05/04, 6:30,24.4,51,23.3,21.6
 2003/05/04, 6:45,24.3,51,23.3,21.6
 2003/05/04, 7:00,24.3,52,23.3,21.7
 2003/05/04, 7:15,24.3,52,23.3,21.7
 2003/05/04, 7:30,24.4,51,23.3,21.7
 2003/05/04, 7:45,24.4,51,23.3,21.6
 2003/05/04, 8:00,24.5,51,23.3,17.9
 2003/05/04, 8:15,24.7,51,23.4,18
 2003/05/04, 8:30,24.8,51,23.4,18.1
 2003/05/04, 8:45,24.9,50,23.3,18.2
 2003/05/04, 9:00,24.9,49,23.4,17.1
 2003/05/04, 9:15,25.1,51,23.6,16.5
 2003/05/04, 9:30,25.2,53,23.5,16.3
 2003/05/04, 9:45,25.3,49,23.5,16.5
 2003/05/04,10:00,25.3,49,23.6,14.6
 2003/05/04,10:15,25.2,49,23.6,14.8
 2003/05/04,10:30,25.2,49,23.5,15
 2003/05/04,10:45,25.1,49,23.5,15.1
 2003/05/04,11:00,25,49,23.6,15.3
 2003/05/04,11:15,24.9,48,23.5,15.5
 2003/05/04,11:30,24.9,48,23.5,15.6
 2003/05/04,11:45,24.9,49,23.4,15.8
 2003/05/04,12:00,24.9,49,23.4,15.9
 2003/05/04,12:15,24.9,49,23.5,16.1
 2003/05/04,12:30,24.9,49,23.5,16.2
 2003/05/04,12:45,24.9,49,23.5,16.4
 2003/05/04,13:00,25,49,23.5,16.5
 2003/05/04,13:15,25,49,23.5,16.6
 2003/05/04,13:30,25,49,23.5,16.8
 2003/05/04,13:45,25,49,23.6,16.9
 2003/05/04,14:00,25.1,49,23.6,17
 2003/05/04,14:15,25.1,49,23.7,17.1
 2003/05/04,14:30,25.1,49,23.7,17.2
 2003/05/04,14:45,25.1,49,23.7,17.3
 2003/05/04,15:00,25.2,48,23.8,17.5
 2003/05/04,15:15,25.1,48,23.8,17.6
 2003/05/04,15:30,25.1,48,23.8,17.7
 2003/05/04,15:45,25.2,48,23.8,20
 2003/05/04,16:00,25.3,44,24,17
 2003/05/04,16:15,25.4,43,24.2,17.2
 2003/05/04,16:30,25.5,42,24.2,17.3
 2003/05/04,16:45,25.6,40,24.4,17.4
 2003/05/04,17:00,25.5,42,24.4,17.5
 2003/05/04,17:15,25.6,41,24.4,18.2
 2003/05/04,17:30,25.6,42,24.4,16.5
 2003/05/04,17:45,25.5,43,24.5,16.5
 2003/05/04,18:00,25.4,44,24.5,16.7
 2003/05/04,18:15,25.3,45,24.5,16.8
 2003/05/04,18:30,25.3,45,24.5,16.9
 2003/05/04,18:45,25.2,46,24.4,17
 2003/05/04,19:00,25.2,46,24.4,17.2
 2003/05/04,19:15,25.2,47,24.4,17.3
 2003/05/04,19:30,25.3,48,24.4,19
 2003/05/04,19:45,25.4,47,24.3,19
 2003/05/04,20:00,25.5,47,24.4,19.1
 2003/05/04,20:15,25.7,51,24.4,19.1
 2003/05/04,20:30,25.8,51,24.4,19.2
 2003/05/04,20:45,25.9,49,24.5,19.3
 2003/05/04,21:00,26,49,24.5,18.5
 2003/05/04,21:15,26,49,24.6,18.8
 2003/05/04,21:30,26,49,24.5,18.8
 2003/05/04,21:45,26.1,49,24.6,18.9
 2003/05/04,22:00,26.1,49,24.6,16.7
 2003/05/04,22:15,26.1,48,24.6,17
 2003/05/04,22:30,26.1,47,24.6,17.3
 2003/05/04,22:45,26.1,46,24.5,17.5
 2003/05/04,23:00,26.1,45,24.5,17.6
 2003/05/04,23:15,26,45,24.5,18.6
 2003/05/04,23:30,26,45,24.5,18.7
 2003/05/04,23:45,25.9,44,24.5,18.7
 2003/05/05, 0:00,25.9,43,24.5,18.8
 2003/05/05, 0:15,25.9,43,24.5,18.9
 2003/05/05, 0:30,25.9,44,24.3,19
 2003/05/05, 0:45,25.9,43,24.4,19.1
 2003/05/05, 1:00,25.8,43,24.4,19.1
 2003/05/05, 1:15,25.8,43,24.4,19.2
 2003/05/05, 1:30,25.8,44,24.3,19.3
 2003/05/05, 1:45,25.7,44,24.3,19.4
 2003/05/05, 2:00,25.5,44,24.2,19.5
 2003/05/05, 2:15,25.4,44,24.3,20.5
 2003/05/05, 2:30,25.3,45,24.3,20.5
 2003/05/05, 2:45,25.3,45,24.2,20.6
 2003/05/05, 3:00,25.2,45,24.1,20.6
 2003/05/05, 3:15,25.2,45,24.2,20.7
 2003/05/05, 3:30,25.2,45,24.1,20.8
 2003/05/05, 3:45,25.2,46,24,20.8
 2003/05/05, 4:00,25.2,46,24.1,20.9
 2003/05/05, 4:15,25.1,46,24.1,20.9
 2003/05/05, 4:30,25.1,46,24.1,21
 2003/05/05, 4:45,25,46,24,21.1
 2003/05/05, 5:00,25,46,24,21.1
 2003/05/05, 5:15,25,46,23.9,21.2
 2003/05/05, 5:30,24.9,46,24,21.2
 2003/05/05, 5:45,24.9,46,24,21.3
 2003/05/05, 6:00,24.9,46,23.9,21.3
 2003/05/05, 6:15,24.9,46,23.9,21.4
 2003/05/05, 6:30,24.9,46,23.9,21.4
 2003/05/05, 6:45,24.9,46,23.9,21.5
 2003/05/05, 7:00,24.9,45,23.9,21.5
 2003/05/05, 7:15,24.9,45,23.8,21.6
 2003/05/05, 7:30,24.9,45,23.8,22.3
 2003/05/05, 7:45,24.9,46,23.7,20.9
 2003/05/05, 8:00,25,45,23.7,17.7
 2003/05/05, 8:15,25.1,44,23.7,17.8
 2003/05/05, 8:30,25.1,44,23.7,17.9
 2003/05/05, 8:45,25.2,45,23.7,18
 2003/05/05, 9:00,25.2,45,23.8,18.1
 2003/05/05, 9:15,25.3,45,24,18.2
 2003/05/05, 9:30,25.4,44,24.1,18.3
 2003/05/05, 9:45,25.6,41,24.1,18.4
 2003/05/05,10:00,25.7,39,23.9,18.5
 2003/05/05,10:15,25.6,39,23.8,18
 2003/05/05,10:30,26.1,37,23.7,18.1
 2003/05/05,10:45,26,39,23.8,18.3
 2003/05/05,11:00,25.8,39,23.7,18.4
 2003/05/05,11:15,25.8,38,23.8,18.5
 2003/05/05,11:30,25.9,39,23.8,18.5
 2003/05/05,11:45,26,39,24,17.8
 2003/05/05,12:00,26,39,23.9,17.8
 2003/05/05,12:15,26.1,38,24,16.9
 2003/05/05,12:30,26.3,37,24.1,17
 2003/05/05,12:45,26.3,37,24.2,17.1
 2003/05/05,13:00,26.6,37,24.3,17.7
 2003/05/05,13:15,26.6,37,24.4,16.5
 2003/05/05,13:30,26.8,35,24.5,16.7
 2003/05/05,13:45,26.8,35,24.4,17.4
 2003/05/05,14:00,26.7,36,24.5,17.1
 2003/05/05,14:15,26.5,38,24.5,17.2
 2003/05/05,14:30,26.4,38,24.6,17.3
 2003/05/05,14:45,26.4,38,24.7,17.4
 2003/05/05,15:00,26.3,38,24.7,17.5
 2003/05/05,15:15,26.2,38,24.7,17.6
 2003/05/05,15:30,26.2,38,24.7,17.7
 2003/05/05,15:45,26.2,37,24.7,17.8
 2003/05/05,16:00,26.2,36,24.7,17.9
 2003/05/05,16:15,26.1,37,24.7,18
 2003/05/05,16:30,26,37,24.8,18.1
 2003/05/05,16:45,26,37,24.8,18.2
 2003/05/05,17:00,25.9,36,24.7,18.3
 2003/05/05,17:15,25.8,36,24.8,18.4
 2003/05/05,17:30,25.8,36,24.7,18.5
 2003/05/05,17:45,25.8,37,24.7,18.6
 2003/05/05,18:00,25.7,38,24.7,18.7
 2003/05/05,18:15,25.6,38,24.6,18.8
 2003/05/05,18:30,25.6,39,24.7,18.9
 2003/05/05,18:45,25.6,39,24.6,19
 2003/05/05,19:00,25.5,39,24.5,19
 2003/05/05,19:15,25.5,40,24.5,19.1
 2003/05/05,19:30,25.5,40,24.5,19.2
 2003/05/05,19:45,25.4,41,24.5,19.3
 2003/05/05,20:00,25.4,41,24.5,19.3
 2003/05/05,20:15,25.4,43,24.4,19.4
 2003/05/05,20:30,25.5,45,24.6,20.5
 2003/05/05,20:45,25.7,45,24.9,20.5
 2003/05/05,21:00,25.8,46,24.7,17.6
 2003/05/05,21:15,26.1,54,24.6,17.8
 2003/05/05,21:30,26.3,52,24.6,17.9
 2003/05/05,21:45,26.4,50,24.8,18
 2003/05/05,22:00,26.5,50,24.8,18.8
 2003/05/05,22:15,26.5,49,24.8,18.8
 2003/05/05,22:30,26.6,49,24.8,18.9
 2003/05/05,22:45,26.6,50,24.8,19
 2003/05/05,23:00,26.6,49,24.9,19.1
 2003/05/05,23:15,26.6,49,24.8,19.1
 2003/05/05,23:30,26.7,49,24.9,19.2
 2003/05/05,23:45,26.7,49,25,19.3
 2003/05/06, 0:00,26.7,49,25,19.4
 2003/05/06, 0:15,26.8,49,25,19.5
 2003/05/06, 0:30,26.8,49,25,19.6
 2003/05/06, 0:45,26.8,49,25,19.7
 2003/05/06, 1:00,26.8,49,25,19.7
 2003/05/06, 1:15,26.8,49,24.9,19.8
 2003/05/06, 1:30,26.8,49,25,19.9
 2003/05/06, 1:45,26.8,49,25,19.9
 2003/05/06, 2:00,26.8,49,25,20
 2003/05/06, 2:15,26.8,49,24.9,20.1
 2003/05/06, 2:30,26.7,49,25,20.2
 2003/05/06, 2:45,26.7,49,25,20.3
 2003/05/06, 3:00,26.6,50,24.9,20.3
 2003/05/06, 3:15,26.4,50,24.9,20.4
 2003/05/06, 3:30,26.3,50,24.9,20.5
 2003/05/06, 3:45,26.2,51,24.9,20.6
 2003/05/06, 4:00,26.1,51,24.8,20.6
 2003/05/06, 4:15,26,51,24.7,20.7
 2003/05/06, 4:30,25.9,52,24.8,20.8
 2003/05/06, 4:45,25.9,52,24.6,20.8
 2003/05/06, 5:00,25.8,52,24.7,20.9
 2003/05/06, 5:15,25.8,52,24.7,21
 2003/05/06, 5:30,25.8,52,24.7,22
 2003/05/06, 5:45,25.8,52,24.6,21.5
 2003/05/06, 6:00,25.8,52,24.5,21.5
 2003/05/06, 6:15,26.1,59,24.6,20.3
 2003/05/06, 6:30,26.1,57,24.8,20.4
 2003/05/06, 6:45,26,54,24.8,20.5
 2003/05/06, 7:00,26,53,24.6,20.5
 2003/05/06, 7:15,26.1,52,24.5,19.6
 2003/05/06, 7:30,26.1,52,24.5,15.4
 2003/05/06, 7:45,26.1,51,24.6,15.5
 2003/05/06, 8:00,26.1,51,24.4,15.7
 2003/05/06, 8:15,26.1,51,24.4,15.9
 2003/05/06, 8:30,26.1,51,24.4,16
 2003/05/06, 8:45,26.2,51,24.4,16.1
 2003/05/06, 9:00,26.2,50,24.4,16.9
 2003/05/06, 9:15,26.2,50,24.4,17
 2003/05/06, 9:30,26.1,50,24.4,17.1
 2003/05/06, 9:45,26,50,24.5,17.2
 2003/05/06,10:00,25.9,50,24.5,17.3
 2003/05/06,10:15,25.9,50,24.5,17.4
 2003/05/06,10:30,25.8,50,24.5,17.6
 2003/05/06,10:45,25.9,50,24.6,17.7
 2003/05/06,11:00,25.9,50,24.6,17.8
 2003/05/06,11:15,25.9,50,24.6,17.9
 2003/05/06,11:30,25.9,50,24.7,18
 2003/05/06,11:45,25.8,50,24.7,18.1
 2003/05/06,12:00,25.8,50,24.7,18.2
 2003/05/06,12:15,25.9,50,24.6,18.3
 2003/05/06,12:30,25.9,49,24.7,18.5
 2003/05/06,12:45,25.9,49,24.7,18.6
 2003/05/06,13:00,25.8,49,24.8,18.7
 2003/05/06,13:15,25.8,49,24.8,18.8
 2003/05/06,13:30,25.8,50,24.8,18.9
 2003/05/06,13:45,25.8,50,24.8,18.9
 2003/05/06,14:00,25.9,49,24.9,19.6
 2003/05/06,14:15,25.9,49,24.9,19.9
 2003/05/06,14:30,25.9,49,24.9,20
 2003/05/06,14:45,25.9,49,24.9,20.1
 2003/05/06,15:00,26,49,24.9,20.1
 2003/05/06,15:15,26.1,49,24.9,20.2
 2003/05/06,15:30,26.1,49,24.9,20.3
 2003/05/06,15:45,26.1,49,25,19.2
 2003/05/06,16:00,26.1,50,25,17.6
 2003/05/06,16:15,26.1,51,25,17.7
 2003/05/06,16:30,26.1,51,25,17.9
 2003/05/06,16:45,26,52,25.1,18
 2003/05/06,17:00,26,53,25.1,18.1
 2003/05/06,17:15,26,54,25.1,18.2
 2003/05/06,17:30,26,54,25.2,19.9
 2003/05/06,17:45,26,54,25.2,20
 2003/05/06,18:00,26.1,55,25.3,16.1
 2003/05/06,18:15,26.1,55,25.2,16.2
 2003/05/06,18:30,26.2,55,25.2,16.4
 2003/05/06,18:45,26.2,55,25.1,16.6
 2003/05/06,19:00,26.3,55,25.3,16.7
 2003/05/06,19:15,26.4,55,25.3,16.9
 2003/05/06,19:30,26.5,55,25.2,17
 2003/05/06,19:45,26.5,55,25.1,18.5
 2003/05/06,20:00,26.6,57,25.1,18.6
 2003/05/06,20:15,26.7,57,25.2,18.7
 2003/05/06,20:30,26.8,56,25.3,16.9
 2003/05/06,20:45,26.8,57,25.2,17
 2003/05/06,21:00,26.8,57,25.3,17.2
 2003/05/06,21:15,26.9,57,25.4,17.3
 2003/05/06,21:30,26.9,57,25.3,17.4
 2003/05/06,21:45,27,57,25.4,17.6
 2003/05/06,22:00,27,58,25.4,17.7
 2003/05/06,22:15,27,58,25.4,16.1
 2003/05/06,22:30,27,58,25.4,16.4
 2003/05/06,22:45,27,58,25.5,16.5
 2003/05/06,23:00,27,61,25.4,16.7
 2003/05/06,23:15,27,59,25.4,16.8
 2003/05/06,23:30,26.9,59,25.5,17
 2003/05/06,23:45,26.9,59,25.5,18.2
 2003/05/07, 0:00,26.8,59,25.4,18.3
 2003/05/07, 0:15,26.8,59,25.5,18.4
 2003/05/07, 0:30,26.8,59,25.4,18.5
 2003/05/07, 0:45,26.7,59,25.4,19.7
 2003/05/07, 1:00,26.5,60,25.4,19.7
 2003/05/07, 1:15,26.4,60,25.3,19.8
 2003/05/07, 1:30,26.2,60,25.3,19.9
 2003/05/07, 1:45,26.2,60,25.2,19.9
 2003/05/07, 2:00,26.1,60,25.2,20
 2003/05/07, 2:15,26.1,60,25.2,20.1
 2003/05/07, 2:30,26,61,25.2,20.2
 2003/05/07, 2:45,26,61,25.1,20.3
 2003/05/07, 3:00,26,61,25.1,20.4
 2003/05/07, 3:15,25.9,60,25,20.5
 2003/05/07, 3:30,25.9,61,25,20.6
 2003/05/07, 3:45,25.9,60,25,20.7
 2003/05/07, 4:00,25.8,61,25,20.8
 2003/05/07, 4:15,25.8,61,24.9,20.8
 2003/05/07, 4:30,25.8,61,24.9,20.9
 2003/05/07, 4:45,25.8,60,24.9,21
 2003/05/07, 5:00,25.8,60,24.9,21.1
 2003/05/07, 5:15,25.8,60,24.9,21.1
 2003/05/07, 5:30,25.7,61,24.9,21.2
 2003/05/07, 5:45,25.9,61,24.9,22.2
 2003/05/07, 6:00,26,60,24.9,19.5
 2003/05/07, 6:15,26.1,60,25,19.6
 2003/05/07, 6:30,26.2,60,25.3,19.7
 2003/05/07, 6:45,26.2,60,25.4,19.7
 2003/05/07, 7:00,26.5,60,25.4,19.8
 2003/05/07, 7:15,26.6,59,25.2,19.9
 2003/05/07, 7:30,26.7,59,25.2,20
 2003/05/07, 7:45,26.6,59,25.2,17.3
 2003/05/07, 8:00,26.7,58,25.1,17.4
 2003/05/07, 8:15,26.7,58,25.1,17.6
 2003/05/07, 8:30,26.7,58,25,17.7
 2003/05/07, 8:45,26.8,58,25,18.6
 2003/05/07, 9:00,26.8,58,25,17
 2003/05/07, 9:15,26.7,58,25.1,17.1
 2003/05/07, 9:30,26.7,58,25.1,17.3
 2003/05/07, 9:45,26.7,59,25.2,17.4
 2003/05/07,10:00,26.6,59,25.2,17.5
 2003/05/07,10:15,26.6,59,25.3,17.7
 2003/05/07,10:30,26.6,59,25.3,17.8
 2003/05/07,10:45,26.5,59,25.4,18
 2003/05/07,11:00,26.5,59,25.4,18.1
 2003/05/07,11:15,26.5,59,25.4,18.2
 2003/05/07,11:30,26.5,59,25.4,18.3
 2003/05/07,11:45,26.5,59,25.4,18.5
 2003/05/07,12:00,26.5,59,25.5,18.6
 2003/05/07,12:15,26.5,59,25.5,18.7
 2003/05/07,12:30,26.5,60,25.5,18.8
 2003/05/07,12:45,26.5,60,25.5,18.9
 2003/05/07,13:00,26.4,61,25.7,21.2
 2003/05/07,13:15,26.5,64,25.9,21.3
 2003/05/07,13:30,26.6,66,25.8,21.4
 2003/05/07,13:45,26.6,66,25.8,21.4
 2003/05/07,14:00,26.7,65,25.8,21.5
 2003/05/07,14:15,26.7,66,25.8,21.5
 2003/05/07,14:30,26.7,66,25.8,21.6
 2003/05/07,14:45,26.8,67,25.8,21.7
 2003/05/07,15:00,26.8,67,25.9,21.7
 2003/05/07,15:15,26.8,67,25.9,21.8
 2003/05/07,15:30,26.8,67,26,21.9
 2003/05/07,15:45,26.9,67,26,21.8
 2003/05/07,16:00,27,68,26,21.8
 2003/05/07,16:15,27,67,26,21.9
 2003/05/07,16:30,27.1,67,26.1,22
 2003/05/07,16:45,27,68,26.1,22
 2003/05/07,17:00,27.1,68,26.1,22.1
 2003/05/07,17:15,27.1,68,26.1,22.2
 2003/05/07,17:30,27.1,68,26.2,22.2
 2003/05/07,17:45,27.1,68,26.1,21.1
 2003/05/07,18:00,27,67,26.1,20.8
 2003/05/07,18:15,27,69,26.1,20.9
 2003/05/07,18:30,27,69,26.1,21
 2003/05/07,18:45,27,68,26.1,21.1
 2003/05/07,19:00,27,67,26,21.2
 2003/05/07,19:15,27.2,68,26,21.3
 2003/05/07,19:30,27.2,69,26,21.3
 2003/05/07,19:45,27.1,69,26,21.5
 2003/05/07,20:00,27,68,26,21.6
 2003/05/07,20:15,27,70,26,21.6
 2003/05/07,20:30,27,69,26,21.7